Location: Newark
(33.6333°S, 78.8500°W)
Time: 18:49:04
(UTC+00:00)

Courier 1B - Pass Details

Date: 01 October 2019
Orbit: 962 x 1209 km, 28.3° (Epoch: 23 October)

Event Time Altitude Azimuth Distance (km) Brightness Sun altitude
Rises 17:15:18 0° 316° (NW) 3,982 11.0 59.5°
Reaches altitude 10° 17:18:27 10° 327° (NNW) 3,058 10.7 59.5°
Maximum altitude 17:24:51 30° 24° (NNE) 2,005 10.2 59.3°
Drops below altitude 10° 17:31:25 10° 81° (E) 3,150 10.3 59.0°
Sets 17:34:42 0° 91° (E) 4,119 10.7 58.9°
